STARLINK-4447, 53472

Orbit data source: Space-Track

STARLINK-4447, 53472 is a payload satellite owned by SpaceX/Seattle (US) in SSO that was launched on Fri, 12 Aug 2022 UTC via an FALCON 9 launch vehicle from the Air Force Western Test Range (AFWTR). Payload-class satellites include a variety of spacecraft equipped with specific instruments for various scientific and technological missions. These include communications satellites like Starlink; space stations such as the ISS; scientific satellites like the Hubble; Earth observation satellites from companies like Planet Labs, Umbra, and HawkEye 360; GPS; miniature CubeSats for education and research; and military/defense satellites.

Loading next visibility...
Identifier
53472, 2022-099H
Orbit
SSO
Country
Flag of USUS
Related business
Manufacturer
SpaceX/Seattle
Mission
Operational Commercial Communications
Bus & Motor
STARLINK, Unknown motor
Mass
300 kg wet, ~275 kg dry
Launch date (UTC)
2022-08-12 (4 years ago)
Launch vehicle
FALCON 9
Launch site
Air Force Western Test Range (AFWTR)
Object type
Payload
Rocket body
Debris
Shape & HBR
Box + 1 Pan, 10.1 m
Radar Cross Section
13.562 m², Large (>1 m²)

Expand to show TLE details & history
Last TLE update: 14 hours ago

TLE from 14 hours ago
0 STARLINK-4447
1 53472U 22099H   26145.33889141  .00001512  00000-0  10886-3 0  9993
2 53472  97.4469 265.2439 0000901 155.1303 204.9968 15.05647712207501
Epoch: 2026-05-25T08:08Z
TLE epoch observation values (Epoch: 2026-05-25T08:08:00.217Z)
Latitude
-0.00002°
Longitude
-99.68511°
Altitude
553.154 km
Speed
7.585 km/s
True Right ascension
17h 40m 58s
True Declination
0° 00' 00"
Sunlit
Object was in full shadow at epoch
Visualization orbit readout
Latitude
Unknown
Longitude
Unknown
Altitude
Unknown
Speed
Unknown
Apparent Right ascension
Unknown
Apparent Declination
Unknown
Sunlit
N/A
Visualization observer readout
Local Sidereal Time
06:59:03
Azimuth
Unknown
Elevation
Unknown
Doppler factor
Unknown
Orbital elements
Apogee altitude
547.129 km
Perigee altitude
545.881 km
Semi-major axis
6,924.642 km
Eccentricity
0.00009
Inclination
97.4469°
RAAN
265.2439°
Arg. of periapsis
155.1303°
True anomaly
204.99244°
Mean anomaly
204.9968°
Eccentric anomaly
204.99462°
Mean motion
3.76658 °/min
Orbital period
95.58 mins
BSTAR
0.00010886
Loading maneuver chart data...
Computing Atmospheric mass density...
Loading historical data...
Loading historical data...
Loading historical data...
Loading historical data...
Loading historical data...
Loading historical data...
Loading historical data...

Documentation

Showing up to 5 results
|